Location: *
(51.8167°N, 12.5000°E)
Time: 15:07:36
(UTC+00:00)

Nadezhda 3 Rocket - Pass Details

Date: 16 September 2019
Orbit: 958 x 999 km, 82.9° (Epoch: 18 October)

Event Time Altitude Azimuth Distance (km) Brightness Sun altitude
Exits shadow 21:25:18 49° 260° (W) 1,222 4.5 -31.7°
Maximum altitude 21:26:07 53° 287° (WNW) 1,178 4.5 -31.8°
Drops below altitude 10° 21:32:11 10° 3° (N) 2,723 7.0 -32.3°
Sets 21:34:48 0° 9° (N) 3,679 7.7 -32.4°
